Theta_e
337 345 350 353 352 352 353 352 352 351 350 348 348 347 345 344 342 341 340 340 341 339 339 341 341 341 342 343 343 343 344 344 345 346 347 347 347 348 345 344 343 338 341
340 346 348 351 353 353 353 352 351 351 350 349 348 346 345 342 341 341 340 341 341 339 337 335 336 339 340 340 341 342 343 343 342 343 343 344 346 346 345 343 344 339 340
342 346 347 349 351 352 352 351 350 350 350 348 348 345 343 341 340 340 340 340 340 339 338 335 333 333 336 337 337 338 340 339 340 339 338 334 338 346 345 344 344 340 339
342 345 347 346 350 351 351 350 350 349 349 349 347 344 342 340 340 340 339 340 342 340 337 337 334 335 334 334 334 333 334 335 336 335 330 332 335 343 344 343 342 340 338
341 344 346 345 349 350 350 350 349 349 349 349 344 343 341 340 340 340 339 340 341 337 337 336 335 334 334 334 333 332 332 333 333 330 325 326 326 341 344 344 342 340 339
340 343 343 346 349 350 349 349 349 348 349 347 345 343 341 340 341 341 340 340 341 338 337 336 336 334 334 334 334 333 333 333 332 321 321 324 325 341 344 344 342 340 337
340 342 344 345 347 348 348 348 348 348 347 346 345 344 343 341 339 339 340 342 341 339 337 336 335 335 334 333 334 336 335 332 325 321 320 322 323 335 343 344 342 340 337
339 341 344 339 341 344 346 346 346 346 346 346 345 345 344 341 339 340 342 342 340 337 335 334 334 333 332 332 334 335 335 330 325 321 320 320 327 341 342 342 342 342 339
340 340 342 341 339 336 339 340 342 344 344 345 344 344 342 340 339 340 339 340 338 336 334 333 333 333 332 333 334 333 332 329 324 322 323 321 329 338 340 340 341 341 341
338 339 339 339 339 339 339 334 336 338 339 340 339 336 333 334 334 334 332 335 338 337 336 336 335 334 334 334 332 329 329 328 323 323 323 322 330 337 339 341 340 340 340
336 337 339 338 338 338 337 333 331 332 333 333 332 329 327 332 332 330 329 332 336 336 336 335 335 335 333 331 330 328 326 325 323 323 323 326 332 335 338 341 340 339 340
332 335 337 337 337 337 339 335 334 334 333 334 333 331 331 331 332 332 329 328 332 330 332 334 334 332 328 327 326 326 325 324 324 323 323 328 333 336 338 342 341 339 339
333 334 336 336 337 337 337 335 334 332 331 332 331 331 331 331 331 332 331 330 330 324 327 327 325 322 322 325 327 326 326 324 324 324 325 327 333 336 338 341 340 339 338
331 334 336 336 335 335 334 334 333 332 329 327 328 331 331 331 332 331 329 323 320 324 314 311 309 306 306 307 308 312 319 323 324 326 326 324 329 333 337 337 338 338 337
329 331 334 335 334 335 334 333 332 327 323 319 318 322 324 321 313 310 308 306 305 305 304 303 303 303 303 305 305 305 306 308 312 317 320 319 323 329 331 335 337 338 338
329 329 332 333 335 335 332 331 328 323 313 309 308 309 309 307 306 305 304 304 302 300 300 300 300 300 301 302 303 303 304 304 305 306 310 315 321 325 329 331 330 330 332
329 330 331 332 334 331 326 321 319 314 309 308 307 305 305 304 303 301 300 299 299 300 300 300 299 299 299 301 300 301 302 302 302 302 304 305 309 316 321 325 327 328 331
329 329 331 331 327 324 321 317 313 309 307 304 301 302 302 302 301 299 299 299 299 299 299 299 299 299 299 298 298 299 299 300 301 301 302 303 304 306 310 316 319 320 322
328 329 327 323 319 316 312 311 308 303 303 301 300 301 301 301 301 299 298 298 298 298 298 298 298 298 297 297 299 299 299 299 300 302 301 301 302 304 305 310 313 313 317
324 325 322 319 314 311 309 307 305 303 301 299 299 299 300 299 299 298 297 298 298 297 297 297 296 297 296 296 298 299 298 298 299 299 300 302 303 303 302 304 305 306 310
314 317 318 313 309 307 305 302 301 300 300 298 298 299 299 298 298 297 296 296 296 295 295 296 296 295 295 295 294 294 295 298 297 299 300 298 298 300 300 299 300 300 300
311 314 312 310 306 306 305 304 301 300 299 297 298 298 298 297 297 296 295 295 295 294 294 294 293 292 293 293 291 291 289 293 295 296 296 297 296 298 297 298 297 298 297
308 307 308 306 305 305 302 299 299 299 298 296 295 295 296 296 296 295 295 294 294 294 292 292 292 291 290 291 292 291 287 286 289 293 294 294 294 294 294 296 297 297 297
307 307 304 303 302 301 300 300 299 298 296 294 294 294 295 296 295 295 294 294 293 293 292 292 292 291 290 288 290 293 292 293 287 286 291 294 293 294 294 295 295 296 296
299 302 302 300 300 300 300 300 298 297 296 294 294 294 294 294 294 294 293 292 292 291 290 290 289 289 290 289 289 289 291 291 292 291 287 290 292 292 293 293 294 294 295
295 295 296 297 296 299 299 298 298 296 295 294 293 292 292 292 292 292 293 292 291 290 289 289 289 289 288 289 289 289 289 289 288 288 288 288 289 292 294 293 293 294 295
Wind_Speed
11 12 16 16 18 18 18 17 16 15 16 16 15 15 14 13 13 13 12 12 11 12 11 10 11 11 12 12 12 12 12 12 12 12 9 9 11 14 12 11 10 7 12
14 14 16 17 17 17 17 17 16 15 16 16 15 15 14 13 12 11 11 9 10 12 13 12 9 9 10 10 11 11 11 10 9 9 9 7 8 10 11 10 8 8 10
17 14 14 17 17 17 17 16 16 16 16 17 16 14 13 12 11 11 9 7 7 10 10 11 11 10 8 8 8 8 8 7 6 6 6 3 2 7 11 9 8 8 8
16 14 13 15 17 17 17 17 16 15 15 16 15 14 13 12 12 10 9 6 10 9 8 8 9 10 9 9 7 6 6 5 4 4 3 2 3 4 8 9 8 7 6
15 13 12 14 18 17 17 17 16 15 15 15 15 14 13 12 11 9 8 8 8 9 8 7 6 7 6 6 6 6 4 4 5 5 2 2 3 6 9 9 8 7 6
14 13 14 16 18 18 16 16 16 16 16 15 14 13 12 11 10 8 7 6 7 9 8 6 5 3 3 3 3 3 4 5 6 5 4 3 5 7 9 8 8 8 7
13 12 13 16 17 17 17 16 15 16 14 14 13 12 11 10 9 7 7 9 8 8 7 6 4 3 2 1 3 3 3 3 3 3 4 5 5 8 9 11 11 9 8
14 12 12 13 14 15 16 16 14 14 14 13 12 11 11 9 7 6 8 9 9 6 5 4 3 2 0 3 4 4 5 4 2 3 4 4 7 6 8 8 10 11 10
13 12 10 10 12 12 13 13 13 12 11 10 10 10 10 9 8 8 7 7 7 6 5 3 2 1 2 3 4 5 7 6 3 3 3 3 7 8 5 6 7 8 10
12 12 11 9 9 9 9 11 11 11 10 9 9 9 9 8 8 8 7 7 6 5 4 2 1 2 3 4 6 6 6 7 4 5 4 3 8 10 7 7 7 7 8
9 11 10 9 8 7 7 7 9 9 9 8 8 9 7 4 5 6 6 7 7 5 2 1 3 4 6 7 7 7 7 3 4 4 3 7 9 11 13 9 7 7 9
13 11 11 10 9 8 6 6 5 5 4 4 5 5 4 5 4 5 5 5 5 3 3 4 4 4 5 3 3 5 3 4 3 4 3 9 12 14 13 10 9 9 9
14 11 12 11 10 9 7 5 3 3 3 3 5 5 5 3 3 2 2 2 2 2 1 3 4 3 5 4 3 3 4 3 3 3 5 7 6 9 12 12 12 12 11
14 14 15 14 11 10 5 6 6 5 4 3 4 6 4 3 3 3 3 3 2 2 3 4 3 4 5 5 5 5 4 3 3 3 4 9 9 12 14 12 13 12 12
13 14 15 14 13 12 9 6 6 5 4 4 4 4 3 4 4 4 3 4 4 3 3 3 3 3 4 5 5 5 6 6 5 3 2 8 9 10 13 14 15 16 14
15 14 15 16 13 10 8 9 7 7 6 4 4 4 5 4 4 4 4 4 4 3 2 2 2 3 4 4 5 5 5 5 5 6 4 5 10 12 13 15 16 17 19
13 14 14 14 13 12 11 8 7 7 6 5 4 5 6 5 5 5 4 4 3 3 4 3 3 3 4 4 4 5 5 5 5 5 5 4 5 8 11 15 15 15 17
12 13 13 9 10 11 11 9 7 7 6 6 5 4 6 6 6 5 4 3 2 3 3 3 3 3 4 4 4 5 4 5 6 6 5 4 4 4 6 11 12 14 14
12 13 11 12 13 12 11 9 8 9 7 5 5 4 6 6 6 5 4 3 3 3 3 2 2 2 2 4 4 4 5 4 5 5 5 5 6 5 4 8 12 12 15
9 12 14 12 15 14 9 8 7 6 7 4 5 4 6 5 6 5 4 4 3 3 3 3 3 2 2 4 5 5 4 4 3 4 4 4 6 7 7 9 7 8 19
7 12 15 15 15 14 9 9 6 7 6 5 5 6 6 5 5 5 4 4 4 4 3 3 2 4 4 5 3 4 3 4 5 5 5 5 7 6 8 8 6 6 7
12 13 14 15 17 14 12 8 5 7 3 4 5 5 6 6 5 5 5 4 4 4 5 5 5 2 3 4 3 1 4 5 4 4 4 5 6 4 6 7 6 7 5
14 14 15 16 15 14 13 10 8 7 6 4 3 4 4 6 5 5 5 5 5 4 4 4 4 4 2 2 5 2 2 2 4 3 3 4 5 4 5 5 7 5 5
13 12 13 14 14 11 16 13 19 10 9 4 4 4 5 6 6 5 5 5 5 4 5 4 4 3 3 3 2 3 3 1 2 5 3 7 4 9 7 7 6 6 5
11 13 13 12 11 13 12 15 11 10 4 5 6 7 5 5 6 5 5 5 5 4 4 5 4 4 2 2 2 1 1 1 4 3 6 6 6 4 4 5 5 5 7
8 10 11 14 9 12 13 12 11 15 11 10 7 6 4 4 4 5 5 5 5 5 5 4 4 5 4 3 3 3 2 2 2 2 4 8 9 6 3 4 5 5 6
Wind_Direction
166 162 156 152 151 150 146 144 138 136 131 126 120 114 110 107 104 101 99 98 89 84 81 81 85 83 81 78 73 69 71 75 65 61 65 107 114 109 103 94 90 92 92
145 157 155 152 152 152 148 144 144 141 137 134 128 123 122 119 115 110 108 109 101 93 86 79 82 83 79 74 72 72 70 72 66 66 58 59 108 117 114 105 102 103 99
147 155 154 152 151 150 150 147 147 146 144 138 135 129 129 126 124 121 118 116 116 101 93 84 78 85 81 73 66 66 72 70 64 61 56 52 4 136 130 124 115 111 110
146 153 154 151 147 146 150 150 150 150 148 140 135 138 140 138 137 133 123 113 127 107 105 96 88 82 80 75 72 64 46 35 24 34 40 7 288 194 145 140 132 127 122
144 152 152 150 146 147 148 150 150 151 148 139 144 149 148 146 145 142 135 117 121 109 114 115 106 94 82 66 63 62 50 21 347 340 24 324 293 228 181 165 151 141 133
146 152 153 153 151 149 149 150 152 150 147 146 153 153 151 150 149 147 155 147 134 123 116 123 123 110 95 56 14 21 33 10 351 331 325 323 342 236 199 177 162 158 158
147 151 157 155 153 155 154 154 153 149 150 155 156 155 152 152 155 155 173 168 140 133 126 120 123 104 89 3 355 319 325 349 11 327 323 325 314 241 221 204 183 179 183
144 151 158 157 158 162 162 160 155 155 160 160 161 157 149 151 149 141 129 143 138 140 139 135 132 122 340 305 298 306 291 274 335 319 314 317 301 245 228 216 197 192 190
145 152 160 166 162 156 156 154 154 161 164 164 156 148 146 150 151 147 141 142 153 158 154 143 131 66 338 335 312 302 287 244 276 290 303 306 314 270 199 200 217 218 209
151 157 160 162 161 157 163 159 160 162 165 163 157 149 149 159 163 165 168 176 173 171 175 178 267 309 317 318 312 305 310 245 259 287 298 288 297 292 230 213 214 232 240
154 161 161 159 156 157 157 166 162 166 162 157 158 161 155 163 170 182 188 193 193 182 175 254 292 304 306 304 300 299 288 258 267 272 278 268 274 286 264 226 225 233 245
166 167 166 163 164 158 170 155 159 156 159 165 167 169 165 177 193 189 185 214 201 193 222 264 267 298 312 292 290 292 267 247 251 268 274 286 301 284 255 251 243 236 246
170 167 171 169 167 170 173 161 162 155 157 172 179 181 185 175 200 176 145 161 185 153 355 11 12 6 347 328 305 289 278 250 238 255 267 285 309 326 293 255 245 241 246
173 176 172 174 173 176 167 170 170 164 163 161 188 192 173 171 156 143 134 116 97 77 57 37 22 360 353 342 350 344 330 315 305 294 287 285 302 312 306 300 279 258 253
175 179 166 171 178 181 174 170 164 148 144 147 147 138 135 127 121 105 97 87 75 65 56 27 8 352 344 341 339 345 337 332 324 298 283 281 291 302 306 302 290 283 272
180 180 165 167 174 170 162 155 155 147 139 137 132 131 117 116 119 107 102 101 87 72 56 48 11 352 338 342 335 343 333 327 320 322 322 322 315 312 305 302 303 301 298
188 176 173 174 171 159 146 142 138 140 130 123 119 106 107 104 108 119 119 101 88 62 46 29 13 10 359 346 338 329 322 319 312 316 319 316 322 326 320 318 314 311 303
185 179 177 159 151 144 142 142 133 136 130 122 113 107 104 107 114 109 103 88 70 67 62 44 28 354 354 349 324 312 310 311 310 315 313 326 335 325 330 332 330 330 326
185 173 161 151 148 141 139 133 129 120 118 118 109 107 108 102 103 105 103 91 74 73 60 30 32 36 341 334 313 302 296 302 309 321 319 332 343 350 348 348 355 355 1
174 168 154 154 145 136 129 121 112 120 110 114 111 111 110 99 100 104 98 88 81 80 58 42 48 11 360 336 310 311 307 313 345 333 353 29 40 29 21 25 23 14 17
158 155 157 151 154 139 139 132 133 135 137 127 109 119 111 107 108 107 100 91 77 79 70 53 63 42 18 341 343 342 345 37 50 35 67 53 36 34 33 28 24 14 359
169 165 156 159 161 152 150 155 133 137 104 110 113 114 113 111 113 106 109 102 94 96 68 56 55 60 21 20 27 314 358 335 11 18 32 37 37 35 28 17 7 357 351
171 168 165 163 166 151 140 116 102 90 95 86 109 114 121 117 114 114 110 107 93 90 83 75 57 66 66 345 27 104 28 325 325 323 360 19 34 14 352 343 338 331 324
179 167 161 160 159 150 149 144 153 159 162 159 137 135 127 126 121 116 108 104 100 95 86 85 60 71 99 66 352 40 63 69 356 320 322 341 356 343 318 325 319 313 310
157 164 160 152 152 152 153 154 155 133 102 122 120 130 129 128 130 123 118 115 108 103 100 95 77 64 55 90 69 3 342 321 232 242 299 318 315 319 286 281 290 298 298
140 140 147 149 144 150 146 148 161 134 143 136 139 142 143 132 135 128 124 126 127 123 116 107 97 81 68 53 40 22 21 343 319 304 294 305 304 302 297 300 285 287 296